Hattiesburg, MS

11:43 PM CDT on March 28, 2017 (GMT -0500)
Chain Municipal

Weather History for KHBG - April, 2013

Change the Weather History Date:

Friday, April 12, 2013

  Actual Average Record
Temperature  
Mean Temperature 60 °F 64 °F  
Max Temperature 74 °F 77 °F 89 °F (1963)
Min Temperature 45 °F 51 °F 34 °F (1989)
Degree Days  
Heating Degree Days 5 3  
Month to date heating degree days 46 51  
Since 1 July heating degree days 1788 1946  
Cooling Degree Days 0 3  
Month to date cooling degree days 22 26  
Year to date cooling degree days 59 74  
Growing Degree Days 10 (Base 50)    
Moisture  
Dew Point 45 °F    
Average Humidity 62    
Maximum Humidity 93    
Minimum Humidity 31    
Precipitation  
Precipitation 0.00 in 0.17 in 5.30 in (2009)
Month to date precipitation 3.12 2.17  
Year to date precipitation 23.70 18.80  
Sea Level Pressure  
Sea Level Pressure 29.94 in    
Wind  
Wind Speed 5 mph (NNW)    
Max Wind Speed 13 mph    
Max Gust Speed 18 mph    
Visibility 10 miles    
Events      
T = Trace of Precipitation, MM = Missing Value Source: NWS Daily Summary

Daily Weather History Graph

Daily Weather History Graph

Search for Another Location

Airport or City:

Trip Planner

Search our weather history database for the weather conditions in past years. The results will help you decide how hot, cold, wet, or windy it might be!

Date:

Astronomy

Apr. 12, 2013 Rise Set
Actual Time 6:32 AM CDT 7:23 PM CDT
Civil Twilight 6:07 AM CDT 7:48 PM CDT
Nautical Twilight 5:38 AM CDT 8:17 PM CDT
Astronomical Twilight 5:08 AM CDT 8:47 PM CDT
Moon 7:50 AM CDT (4/12) 9:44 PM CDT (4/12)
Length of Visible Light 13h 41m
Length of Day
12h 51m
Waxing Crescent, 5% of the Moon is Illuminated
Apr 12
Waxing Crescent
Apr 18
First Quarter
Apr 25
Full
May 2
Last Quarter
May 9
New

Hourly Weather History & Observations

Time (CDT) Temp. Windchill Dew Point Humidity Pressure Visibility Wind Dir Wind Speed Gust Speed Precip Events Conditions
12:53 AM 54.0 °F - 48.0 °F 80% 29.85 in 10.0 mi NNW 5.8 mph - N/A   Overcast
1:53 AM 52.0 °F - 46.9 °F 83% 29.86 in 10.0 mi WNW 6.9 mph - N/A   Overcast
2:39 AM 51.8 °F - 46.4 °F 82% 29.88 in 10.0 mi WNW 8.1 mph - N/A   Overcast
2:53 AM 51.1 °F - 46.9 °F 86% 29.88 in 10.0 mi WNW 6.9 mph - N/A   Overcast
3:34 AM 51.8 °F - 46.4 °F 82% 29.89 in 10.0 mi NNW 3.5 mph - N/A   Overcast
3:53 AM 50.0 °F - 46.9 °F 89% 29.89 in 10.0 mi North 3.5 mph - N/A   Mostly Cloudy
4:14 AM 50.0 °F - 46.4 °F 87% 29.90 in 10.0 mi NNW 3.5 mph - N/A   Partly Cloudy
4:53 AM 48.9 °F - 45.0 °F 86% 29.91 in 10.0 mi NNW 4.6 mph - N/A   Partly Cloudy
5:53 AM 46.0 °F 44.8 °F 44.1 °F 93% 29.93 in 10.0 mi NW 3.5 mph - N/A   Clear
6:53 AM 46.0 °F 43.9 °F 44.1 °F 93% 29.95 in 10.0 mi NW 4.6 mph - N/A   Clear
7:53 AM 50.0 °F - 46.0 °F 86% 29.97 in 10.0 mi North 5.8 mph - N/A   Clear
8:53 AM 54.0 °F - 44.1 °F 69% 29.98 in 10.0 mi North 5.8 mph - N/A   Clear
9:53 AM 57.9 °F - 44.1 °F 60% 29.99 in 10.0 mi NNW 6.9 mph - N/A   Clear
10:53 AM 62.1 °F - 43.0 °F 50% 29.99 in 10.0 mi NNW 9.2 mph - N/A   Clear
11:53 AM 64.9 °F - 43.0 °F 45% 29.99 in 10.0 mi North 9.2 mph - N/A   Clear
12:53 PM 66.9 °F - 43.0 °F 42% 29.98 in 10.0 mi NW 9.2 mph - N/A   Clear
1:53 PM 69.1 °F - 43.0 °F 39% 29.96 in 10.0 mi WNW 9.2 mph - N/A   Clear
2:53 PM 71.1 °F - 42.1 °F 35% 29.95 in 10.0 mi NNW 8.1 mph - N/A   Clear
3:53 PM 72.0 °F - 41.0 °F 33% 29.93 in 10.0 mi NW 9.2 mph - N/A   Clear
4:53 PM 73.0 °F - 41.0 °F 31% 29.92 in 10.0 mi NW 6.9 mph - N/A   Clear
5:53 PM 73.0 °F - 41.0 °F 31% 29.92 in 10.0 mi North 6.9 mph - N/A   Clear
6:53 PM 71.1 °F - 43.0 °F 36% 29.93 in 10.0 mi Calm Calm - N/A   Clear
7:53 PM 63.0 °F - 46.9 °F 56% 29.95 in 10.0 mi Calm Calm - N/A   Clear
8:53 PM 57.0 °F - 48.9 °F 74% 29.97 in 10.0 mi Calm Calm - N/A   Clear
9:53 PM 54.0 °F - 48.9 °F 83% 30.00 in 10.0 mi Calm Calm - N/A   Clear
10:53 PM 52.0 °F - 48.0 °F 86% 30.02 in 10.0 mi Calm Calm - N/A   Clear
11:53 PM 50.0 °F - 46.9 °F 89% 30.02 in 10.0 mi Calm Calm - N/A   Clear